EW2310 Weather Reports


Display with metric or nautical units.
time (UTC)temp
F
wind
direction
speed
MPH
gust
MPH
rain 1hr
in
rain 24hr
in
rain mn
in
humidity
%
barometer
mb
20260507184044 66 274 3.0 11.0 0.00 0.05 0.00 75 1009.7
20260507183544 66 309 5.0 8.0 0.00 0.05 0.00 75 1009.7
20260507183044 66 317 4.0 9.0 0.00 0.05 0.00 75 1009.6
20260507182544 67 274 2.0 5.0 0.00 0.05 0.00 74 1009.6
20260507182044 67 337 1.0 6.0 0.00 0.05 0.00 74 1009.7
20260507181545 67 309 1.0 7.0 0.00 0.05 0.00 74 1009.7
20260507181045 67 321 5.0 10.0 0.00 0.05 0.00 73 1009.6
20260507180544 67 317 10.0 9.0 0.00 0.05 0.00 73 1009.6
20260507180044 67 325 4.0 9.0 0.00 0.05 0.00 72 1009.7
20260507175544 68 304 3.0 11.0 0.00 0.05 0.00 72 1009.6
20260507175044 68 316 6.0 12.0 0.00 0.05 0.00 71 1009.6
20260507174544 68 312 3.0 9.0 0.00 0.05 0.00 71 1009.7
20260507174044 69 276 3.0 4.0 0.00 0.05 0.00 70 1009.7
20260507173544 69 314 1.0 4.0 0.00 0.05 0.00 70 1009.7
20260507173044 69 294 0.0 5.0 0.00 0.05 0.00 71 1009.7
20260507172544 69 259 0.0 5.0 0.00 0.05 0.00 70 1009.8
20260507172044 69 355 0.0 5.0 0.00 0.05 0.00 70 1009.7
20260507171544 69 255 1.0 6.0 0.00 0.05 0.00 69 1009.6
20260507171044 70 275 0.0 4.0 0.00 0.05 0.00 69 1009.7
20260507170544 70 322 1.0 6.0 0.00 0.05 0.00 68 1009.8
20260507170044 70 215 2.0 7.0 0.00 0.05 0.00 68 1009.8
20260507165544 70 278 0.0 6.0 0.00 0.05 0.00 68 1009.8
20260507165044 70 320 0.0 4.0 0.00 0.05 0.00 68 1009.8
20260507164544 71 320 3.0 3.0 0.00 0.05 0.00 67 1009.8
20260507164047 71 240 0.0 6.0 0.00 0.05 0.00 68 1009.8
20260507163547 71 291 1.0 3.0 0.00 0.05 0.00 69 1009.8
20260507163044 71 273 1.0 5.0 0.00 0.05 0.00 68 1009.7
20260507162544 71 266 0.0 4.0 0.00 0.05 0.00 69 1009.6
20260507162044 71 248 1.0 4.0 0.00 0.05 0.00 69 1009.6
20260507161544 71 310 3.0 4.0 0.00 0.05 0.00 69 1009.7
20260507161044 71 323 0.0 6.0 0.00 0.05 0.00 68 1009.7
20260507160544 72 5 1.0 5.0 0.00 0.05 0.00 69 1009.7
20260507160044 72 221 3.0 5.0 0.00 0.05 0.00 69 1009.6
20260507155544 72 113 2.0 6.0 0.00 0.05 0.00 68 1009.6
20260507155044 72 205 3.0 5.0 0.00 0.05 0.00 69 1009.6
20260507154544 72 306 1.0 3.0 0.00 0.05 0.00 70 1009.6
20260507154044 71 336 1.0 8.0 0.00 0.05 0.00 70 1009.5
20260507153544 71 305 7.0 8.0 0.00 0.05 0.00 72 1009.6
20260507153044 71 237 0.0 5.0 0.00 0.05 0.00 72 1009.6
20260507152544 70 244 1.0 4.0 0.00 0.05 0.00 72 1009.6
20260507152044 70 222 2.0 5.0 0.00 0.05 0.00 73 1009.6
20260507151547 70 12 1.0 6.0 0.00 0.05 0.00 73 1009.6
20260507151044 70 308 0.0 3.0 0.00 0.05 0.00 73 1009.7
20260507150544 70 223 1.0 5.0 0.00 0.05 0.00 72 1009.8
20260507150044 71 288 2.0 7.0 0.00 0.05 0.00 72 1009.9
20260507145544 71 149 1.0 9.0 0.00 0.05 0.00 71 1009.9
20260507145044 71 188 4.0 7.0 0.00 0.05 0.00 71 1009.8
20260507144544 71 188 1.0 7.0 0.00 0.05 0.00 70 1009.9
20260507144047 72 150 3.0 10.0 0.00 0.05 0.00 69 1009.9
20260507143544 72 195 7.0 6.0 0.00 0.05 0.00 69 1009.9
20260507143047 72 335 1.0 5.0 0.00 0.05 0.00 69 1009.9
20260507142544 72 42 1.0 6.0 0.00 0.05 0.00 69 1009.9
20260507142044 72 24 1.0 4.0 0.00 0.05 0.00 69 1009.9
20260507141544 72 34 1.0 3.0 0.00 0.05 0.00 69 1009.9
20260507141044 71 246 3.0 5.0 0.00 0.05 0.00 69 1010.0
20260507140544 71 141 1.0 6.0 0.00 0.05 0.00 69 1010.2
20260507140044 71 186 0.0 6.0 0.00 0.05 0.00 69 1010.4
20260507135547 71 269 4.0 4.0 0.00 0.05 0.00 70 1010.4
20260507135044 71 95 2.0 5.0 0.00 0.05 0.00 71 1010.5
20260507134544 70 289 1.0 6.0 0.00 0.05 0.00 71 1010.6
20260507134044 70 168 1.0 4.0 0.00 0.05 0.00 71 1010.8
20260507133544 70 126 2.0 8.0 0.00 0.05 0.00 72 1010.9
20260507133047 69 179 3.0 4.0 0.00 0.05 0.00 71 1010.9
20260507132547 69 62 2.0 6.0 0.00 0.05 0.00 71 1011.0
20260507132044 69 350 0.0 6.0 0.00 0.05 0.00 71 1011.1
20260507131544 69 184 1.0 8.0 0.00 0.05 0.00 71 1011.0
20260507131044 70 355 1.0 10.0 0.00 0.05 0.00 70 1011.1
20260507130544 70 173 5.0 7.0 0.00 0.05 0.00 70 1011.2
20260507130044 70 180 1.0 6.0 0.00 0.05 0.00 70 1011.2
20260507125544 70 36 1.0 6.0 0.00 0.05 0.00 70 1011.3
20260507125044 70 302 1.0 12.0 0.00 0.05 0.00 70 1011.3
20260507124544 70 181 2.0 12.0 0.00 0.05 0.00 70 1011.3
20260507124044 71 184 5.0 10.0 0.00 0.05 0.00 69 1011.3
20260507123544 71 265 2.0 11.0 0.00 0.05 0.00 69 1011.2
20260507123044 71 215 0.0 8.0 0.00 0.05 0.00 68 1011.3
20260507122544 71 244 4.0 8.0 0.00 0.05 0.00 68 1011.2
20260507122044 71 196 8.0 11.0 0.00 0.05 0.00 68 1011.3
20260507121544 72 340 2.0 10.0 0.00 0.05 0.00 66 1011.3
20260507121044 73 260 1.0 12.0 0.00 0.05 0.00 65 1011.3
20260507120544 74 175 4.0 13.0 0.00 0.05 0.00 63 1011.2
20260507120044 74 220 3.0 8.0 0.00 0.05 0.00 58 1011.3
20260507115547 74 42 2.0 4.0 0.00 0.05 0.00 54 1011.3
20260507115044 74 30 0.0 2.0 0.00 0.05 0.00 56 1011.2
20260507114544 74 29 1.0 4.0 0.00 0.05 0.00 56 1011.2
20260507114044 73 344 2.0 5.0 0.00 0.05 0.00 57 1011.2
20260507113544 73 69 5.0 5.0 0.00 0.05 0.00 57 1011.3
20260507113044 72 321 4.0 4.0 0.00 0.05 0.00 56 1011.3
20260507112544 72 59 1.0 6.0 0.00 0.05 0.00 56 1011.3
20260507112044 72 29 2.0 6.0 0.00 0.05 0.00 57 1011.3
20260507111544 72 67 3.0 9.0 0.00 0.05 0.00 59 1011.5
20260507111044 72 290 1.0 8.0 0.00 0.05 0.00 61 1011.5
20260507110544 71 71 0.0 6.0 0.00 0.05 0.00 60 1011.6
20260507110047 71 355 4.0 9.0 0.00 0.05 0.00 60 1011.6
20260507105544 71 46 4.0 8.0 0.00 0.05 0.00 61 1011.6
20260507105044 71 350 2.0 5.0 0.00 0.05 0.00 62 1011.7
20260507104544 71 341 4.0 10.0 0.00 0.05 0.00 61 1011.8
20260507104044 71 355 2.0 4.0 0.00 0.05 0.00 62 1011.8
20260507103544 71 330 1.0 6.0 0.00 0.05 0.00 62 1011.9
20260507103044 71 327 4.0 11.0 0.00 0.05 0.00 63 1011.9
20260507102544 71 281 1.0 4.0 0.00 0.05 0.00 64 1011.9
20260507102044 70 301 0.0 9.0 0.00 0.05 0.00 64 1012.0
20260507101544 70 317 8.0 8.0 0.00 0.05 0.00 64 1012.1
20260507101044 70 312 4.0 9.0 0.00 0.05 0.00 63 1012.1
20260507100544 70 315 4.0 9.0 0.00 0.05 0.00 64 1012.2
20260507100044 70 323 3.0 8.0 0.00 0.05 0.00 65 1012.0
20260507095547 70 112 3.0 5.0 0.00 0.05 0.00 64 1012.0
20260507095047 70 319 6.0 11.0 0.00 0.05 0.00 63 1012.0
20260507094544 70 314 3.0 5.0 0.00 0.05 0.00 64 1012.2
20260507094044 69 322 1.0 6.0 0.00 0.05 0.00 65 1012.2
20260507093547 70 22 2.0 8.0 0.00 0.05 0.00 64 1012.2
20260507093044 70 80 8.0 8.0 0.00 0.05 0.00 63 1012.2
20260507092547 70 38 3.0 3.0 0.00 0.05 0.00 66 1012.2
20260507092048 69 40 0.0 4.0 0.00 0.05 0.00 67 1012.3
20260507091544 68 111 2.0 4.0 0.00 0.05 0.00 67 1012.2
20260507091044 68 344 2.0 5.0 0.00 0.05 0.00 67 1012.2
20260507090544 68 349 2.0 5.0 0.00 0.05 0.00 68 1012.2
20260507090044 68 321 0.0 6.0 0.00 0.05 0.00 68 1012.1
20260507085544 67 39 1.0 4.0 0.00 0.05 0.00 69 1012.1
20260507085044 67 37 4.0 9.0 0.00 0.05 0.00 68 1012.0
20260507084544 67 311 4.0 9.0 0.00 0.05 0.00 69 1012.0
20260507084044 67 320 5.0 6.0 0.00 0.05 0.00 69 1012.1
20260507083544 68 329 5.0 6.0 0.00 0.05 0.00 68 1012.2
20260507083044 68 309 1.0 3.0 0.00 0.05 0.00 69 1012.3
20260507082544 68 308 1.0 5.0 0.00 0.05 0.00 69 1012.2
20260507082044 67 304 0.0 6.0 0.00 0.05 0.00 70 1012.1
20260507081544 67 355 1.0 6.0 0.00 0.05 0.00 68 1012.2
20260507081047 68 271 3.0 3.0 0.00 0.05 0.00 70 1012.2
20260507080547 67 190 2.0 3.0 0.00 0.05 0.00 71 1012.1
20260507080044 67 194 1.0 6.0 0.00 0.05 0.00 71 1012.2
20260507075544 66 153 2.0 5.0 0.00 0.05 0.00 71 1012.2
20260507075044 66 152 3.0 4.0 0.00 0.05 0.00 71 1012.2
20260507074544 66 146 1.0 7.0 0.00 0.05 0.00 70 1012.2
20260507074044 66 212 0.0 2.0 0.00 0.05 0.00 72 1012.2
20260507073544 66 213 0.0 4.0 0.00 0.05 0.00 71 1012.3
20260507073044 66 188 2.0 3.0 0.00 0.05 0.00 72 1012.3
20260507072547 66 189 1.0 3.0 0.00 0.05 0.00 72 1012.4
20260507072044 65 190 0.0 8.0 0.00 0.05 0.00 73 1012.4
20260507071547 65 171 1.0 7.0 0.00 0.05 0.00 72 1012.5
20260507071044 65 163 0.0 2.0 0.00 0.05 0.00 75 1012.5
20260507070544 65 163 1.0 5.0 0.00 0.05 0.00 75 1012.6
20260507070044 65 162 0.0 6.0 0.00 0.05 0.00 76 1012.6
20260507065544 64 138 1.0 7.0 0.00 0.05 0.00 77 1012.6
20260507065044 64 174 2.0 3.0 0.00 0.05 0.00 78 1012.7
20260507064547 64 174 2.0 8.0 0.00 0.05 0.00 77 1012.7
20260507064048 64 152 0.0 6.0 0.00 0.05 0.00 79 1012.6
20260507063544 63 158 2.0 7.0 0.00 0.05 0.00 78 1012.4
20260507063044 63 150 0.0 5.0 0.00 0.05 0.00 79 1012.3
20260507062544 63 162 4.0 6.0 0.00 0.05 0.00 80 1012.3
20260507062044 63 150 3.0 8.0 0.00 0.05 0.00 80 1012.2
20260507061544 62 136 0.0 4.0 0.00 0.05 0.00 81 1012.2
20260507061044 62 140 2.0 5.0 0.00 0.05 0.00 81 1012.1
20260507060544 61 128 2.0 4.0 0.00 0.05 0.00 82 1012.1
20260507060047 61 117 4.0 4.0 0.00 0.05 0.00 82 1012.1
20260507055544 61 140 2.0 3.0 0.00 0.04 0.00 83 1012.2
20260507055047 60 140 0.0 4.0 0.00 0.04 0.00 83 1012.1
20260507054544 60 141 1.0 5.0 0.00 0.04 0.00 82 1012.0
20260507054044 60 116 1.0 3.0 0.00 0.04 0.00 82 1012.0
20260507053544 60 115 1.0 4.0 0.00 0.04 0.00 82 1012.1
20260507053044 60 78 3.0 4.0 0.00 0.04 0.00 83 1012.1
20260507052544 60 78 0.0 3.0 0.00 0.04 0.00 84 1012.0
20260507052047 60 78 2.0 4.0 0.00 0.04 0.00 84 1012.0
20260507051544 60 77 2.0 5.0 0.00 0.04 0.00 84 1012.0
20260507051044 59 75 1.0 3.0 0.00 0.04 0.00 84 1012.0
20260507050544 59 75 3.0 4.0 0.00 0.04 0.00 84 1012.0
20260507050047 59 75 3.0 3.0 0.00 0.04 0.00 85 1012.0
20260507045544 59 74 2.0 4.0 0.00 0.04 0.00 85 1011.9
20260507045044 58 74 1.0 2.0 0.00 0.04 0.00 85 1011.9
20260507044544 58 74 2.0 3.0 0.00 0.05 0.00 85 1011.9
20260507044044 58 74 1.0 2.0 0.00 0.05 0.00 85 1011.9
20260507043544 58 74 1.0 3.0 0.00 0.05 0.00 85 1011.9
20260507043044 58 74 1.0 3.0 0.00 0.05 0.00 85 1011.8
20260507042547 58 74 2.0 3.0 0.00 0.05 0.00 85 1011.8
20260507042047 58 74 1.0 3.0 0.00 0.05 0.00 85 1011.8
20260507041544 58 74 3.0 5.0 0.00 0.05 0.00 85 1011.8
20260507041044 58 67 4.0 5.0 0.00 0.05 0.00 85 1011.7
20260507040544 58 65 2.0 3.0 0.00 0.05 0.00 85 1011.7
20260507040044 58 65 3.0 4.0 0.00 0.05 0.00 85 1011.7
20260507035544 59 65 1.0 4.0 0.00 0.05 0.00 85 1011.6
20260507035044 59 65 2.0 5.0 0.00 0.05 0.00 85 1011.7
20260507034544 59 63 3.0 4.0 0.00 0.05 0.00 84 1011.7
20260507034044 59 60 2.0 2.0 0.00 0.05 0.00 84 1011.8
20260507033544 59 60 2.0 4.0 0.00 0.05 0.00 84 1011.8
20260507033044 59 60 0.0 3.0 0.00 0.05 0.00 85 1011.9
20260507032547 58 60 1.0 4.0 0.00 0.05 0.00 85 1011.8
20260507032047 58 36 4.0 4.0 0.00 0.05 0.00 85 1011.8
20260507031544 58 346 2.0 3.0 0.00 0.05 0.00 85 1011.9
20260507031044 58 346 0.0 1.0 0.00 0.05 0.00 85 1011.9
20260507030544 58 346 0.0 2.0 0.00 0.05 0.00 86 1011.8
20260507030044 58 346 1.0 2.0 0.00 0.05 0.00 86 1011.8
20260507025544 58 346 1.0 2.0 0.00 0.05 0.00 86 1011.8
20260507025044 58 346 1.0 3.0 0.00 0.05 0.00 86 1011.8
20260507024547 58 346 2.0 3.0 0.00 0.05 0.00 86 1011.8
20260507024044 58 346 1.0 5.0 0.00 0.05 0.00 86 1011.7
20260507023544 58 345 4.0 4.0 0.00 0.05 0.00 87 1011.8
20260507023044 58 345 2.0 5.0 0.00 0.05 0.00 87 1011.8
20260507022544 58 344 2.0 4.0 0.00 0.05 0.00 87 1011.8
20260507022047 58 340 4.0 5.0 0.00 0.05 0.00 88 1011.8
20260507021545 58 331 3.0 5.0 0.00 0.05 0.00 88 1011.8
20260507021048 58 341 3.0 5.0 0.00 0.05 0.00 88 1011.8
20260507020544 58 340 5.0 5.0 0.00 0.05 0.00 88 1011.8
20260507020044 58 335 4.0 6.0 0.00 0.05 0.00 88 1011.8
20260507015544 58 332 3.0 4.0 0.00 0.05 0.00 88 1011.8
20260507015047 58 331 1.0 3.0 0.00 0.05 0.00 88 1011.8
20260507014544 58 331 0.0 3.0 0.00 0.05 0.00 88 1011.7
20260507014044 58 345 2.0 3.0 0.00 0.05 0.00 88 1011.8
20260507013547 58 104 1.0 2.0 0.00 0.05 0.00 88 1011.7
20260507013047 58 105 0.0 3.0 0.00 0.05 0.00 88 1011.7
20260507012544 58 105 0.0 2.0 0.00 0.05 0.00 89 1011.7
20260507012044 58 105 0.0 3.0 0.00 0.05 0.00 89 1011.7
20260507011544 57 105 1.0 2.0 0.00 0.05 0.00 89 1011.7
20260507011044 57 108 0.0 2.0 0.00 0.05 0.00 90 1011.6
20260507010547 57 108 0.0 3.0 0.00 0.05 0.00 90 1011.5
20260507010044 57 108 1.0 4.0 0.00 0.05 0.00 90 1011.6
20260507005544 57 108 3.0 6.0 0.00 0.05 0.00 90 1011.7
20260507005047 57 108 1.0 3.0 0.00 0.05 0.00 90 1011.7
20260507004544 57 107 2.0 4.0 0.00 0.05 0.00 91 1011.7
20260507004044 57 103 1.0 4.0 0.00 0.05 0.00 91 1011.7
20260507003547 57 91 2.0 4.0 0.00 0.05 0.00 91 1011.8
20260507003044 57 111 4.0 6.0 0.00 0.05 0.00 90 1011.8
20260507002544 57 87 0.0 6.0 0.00 0.05 0.00 91 1011.9
20260507002044 57 103 1.0 7.0 0.00 0.05 0.00 91 1011.9
20260507001544 57 88 3.0 8.0 0.00 0.05 0.00 91 1011.8
20260507001044 57 138 3.0 10.0 0.00 0.05 0.00 91 1011.8
20260507000544 57 144 5.0 7.0 0.00 0.05 0.00 91 1011.8
20260507000044 57 148 4.0 10.0 0.01 0.05 0.00 91 1011.9
20260506235544 57 81 7.0 10.0 0.01 0.05 0.00 91 1011.9
20260506235044 58 135 3.0 9.0 0.02 0.05 0.00 91 1011.9
20260506234544 58 95 6.0 10.0 0.02 0.05 0.00 91 1012.0
20260506234044 58 113 3.0 8.0 0.03 0.05 0.00 91 1012.0
20260506233544 58 133 5.0 9.0 0.03 0.05 0.00 91 1012.1
20260506233044 58 154 4.0 11.0 0.03 0.05 0.00 90 1012.2
20260506232544 58 213 6.0 12.0 0.03 0.05 0.00 90 1012.2
20260506232044 58 146 10.0 12.0 0.03 0.05 0.00 90 1012.2
20260506231544 58 140 9.0 14.0 0.03 0.04 0.00 90 1012.1
20260506231044 58 154 8.0 14.0 0.03 0.04 0.00 90 1012.1
20260506230544 58 146 10.0 14.0 0.03 0.04 0.00 90 1012.1
20260506230044 59 157 9.0 13.0 0.02 0.03 0.00 90 1012.1
20260506225544 59 160 8.0 16.0 0.02 0.03 0.00 90 1012.1
20260506225044 59 182 8.0 11.0 0.01 0.03 0.00 89 1012.1
20260506224547 59 154 6.0 14.0 0.01 0.03 0.00 88 1012.1
20260506224044 59 166 10.0 16.0 0.00 0.02 0.00 87 1012.1
20260506223544 59 176 9.0 13.0 0.00 0.02 0.00 86 1012.1
20260506223047 60 146 11.0 10.0 0.00 0.01 0.00 86 1012.1
20260506222547 59 133 8.0 11.0 0.00 0.01 0.00 86 1012.0
20260506222044 60 169 2.0 10.0 0.00 0.01 0.00 85 1011.9
20260506221547 60 161 7.0 10.0 0.00 0.01 0.00 85 1011.9
20260506221044 60 151 6.0 9.0 0.00 0.01 0.00 85 1011.9
20260506220544 60 144 6.0 11.0 0.00 0.01 0.00 84 1012.0
20260506220044 60 155 6.0 11.0 0.00 0.01 0.00 84 1011.9
20260506215544 60 161 5.0 10.0 0.00 0.01 0.00 84 1011.9
20260506215047 60 153 3.0 11.0 0.00 0.01 0.00 84 1012.0
20260506214547 60 163 5.0 10.0 0.00 0.01 0.00 85 1012.1
20260506214044 60 147 6.0 10.0 0.00 0.01 0.00 85 1012.1
20260506213547 60 142 6.0 11.0 0.00 0.01 0.00 85 1012.2
20260506213044 60 161 5.0 9.0 0.00 0.01 0.00 85 1012.3
20260506212544 60 151 6.0 9.0 0.00 0.01 0.00 85 1012.2
20260506212044 60 137 7.0 10.0 0.00 0.01 0.00 85 1012.2
20260506211544 60 155 8.0 9.0 0.00 0.01 0.00 85 1012.1
20260506211047 60 140 9.0 9.0 0.00 0.01 0.00 85 1012.2
20260506210547 60 155 3.0 9.0 0.00 0.01 0.00 86 1012.3
20260506210044 60 153 3.0 8.0 0.00 0.01 0.00 86 1012.3
20260506205547 60 155 6.0 7.0 0.00 0.01 0.00 86 1012.3
20260506205044 60 158 5.0 6.0 0.00 0.01 0.00 86 1012.2
20260506204544 60 153 3.0 7.0 0.00 0.01 0.00 86 1012.3
20260506204044 60 158 2.0 6.0 0.00 0.01 0.00 86 1012.2
20260506203544 60 145 6.0 8.0 0.00 0.01 0.00 86 1012.2
20260506203044 60 154 6.0 7.0 0.00 0.01 0.00 85 1012.2
20260506202544 60 163 5.0 8.0 0.00 0.01 0.00 85 1012.3
20260506202044 61 137 4.0 9.0 0.00 0.01 0.00 85 1012.3
20260506201544 60 167 4.0 8.0 0.00 0.01 0.00 85 1012.3
20260506201044 61 163 5.0 9.0 0.00 0.01 0.00 85 1012.3
20260506200547 61 159 7.0 7.0 0.00 0.01 0.00 85 1012.2
20260506200044 61 146 4.0 7.0 0.00 0.01 0.00 84 1012.2
20260506195544 61 138 4.0 8.0 0.00 0.01 0.00 84 1012.2
20260506195044 61 150 4.0 8.0 0.00 0.00 0.00 83 1012.2
20260506194544 61 142 6.0 9.0 0.00 0.00 0.00 82 1012.3
20260506194044 62 146 3.0 9.0 0.00 0.00 0.00 81 1012.3
20260506193547 62 145 4.0 8.0 0.00 0.00 0.00 81 1012.3
20260506193047 62 143 4.0 9.0 0.00 0.00 0.00 80 1012.2
20260506192544 62 128 7.0 10.0 0.00 0.00 0.00 80 1012.2
20260506192044 62 148 6.0 8.0 0.00 0.00 0.00 80 1012.2
20260506191547 62 140 7.0 10.0 0.00 0.00 0.00 80 1012.1
20260506191047 62 147 8.0 11.0 0.00 0.00 0.00 80 1012.0
20260506190544 62 161 5.0 11.0 0.00 0.00 0.00 79 1011.9
20260506190044 63 148 9.0 11.0 0.00 0.00 0.00 79 1011.9
20260506185544 63 157 3.0 10.0 0.00 0.00 0.00 79 1011.8
20260506185044 63 140 7.0 11.0 0.00 0.00 0.00 78 1011.7
20260506184544 63 164 6.0 9.0 0.00 0.00 0.00 77 1011.7